Location: Black Creek
(40.9000°S, 175.5500°E)
Time: 04:25:42
(UTC+00:00)

Lacrosse 5 rocket - Pass Details

Date: 04 August 2024
Orbit: 434 x 569 km, 57.0° (Epoch: 07 September)

Event Time Altitude Azimuth Distance (km) Brightness Sun altitude
Exits shadow 16:59:29 14° 12° (NNE) 1,636 3.8 -26.8°
Maximum altitude 17:02:02 23° 56° (ENE) 1,234 3.6 -26.3°
Drops below altitude 10° 17:05:23 10° 109° (ESE) 1,856 4.9 -25.7°
Sets 17:07:56 0° 123° (ESE) 2,734 5.7 -25.2°
